Station RCKM4 - 9076024 - Rock Cut, MI Image indicating link to RSS feed of recent meteorological observations for station RCKM4


Conditions at RCKM4 as of
(10:30 am EDT)
1430 GMT on 09/01/2026:
     

Click on the graph icon in the table below to see a time series plot of the last five days of that observation.

5-day plot - Wind Direction Wind Direction (WDIR): SE ( 130 deg true )
5-day plot - Wind Speed Wind Speed (WSPD): 4.1 kts
5-day plot - Wind Gust Wind Gust (GST): 5.1 kts
5-day plot - Atmospheric Pressure Atmospheric Pressure (PRES):29.92 in
5-day plot - Water Temperature Water Temperature (WTMP): 66.6 °F
5-day plot - Wind Speed at 10 Meters Wind Speed at 10 meters (WSPD10M): 3.9 kts
5-day plot - Wind Speed at 20 Meters Wind Speed at 20 meters (WSPD20M): 5.8 kts
5-day plot -  Wind Speed, Wind Gust and Atmospheric Pressure Combined plot of Wind Speed, Gust, and Air Pressure
NOS Water Level Observation Network Water Level
Previous observations
TIME
(EDT)
5-day plot - Wind Direction
WDIR
 
5-day plot - Wind Speed
WSPD
kts
5-day plot - Wind Gust
GST
kts
5-day plot - Wave Height
WVHT
ft
5-day plot - Dominant Wave Period
DPD
sec
5-day plot - Average Wave Period
APD
sec
5-day plot - Mean Wave Direction
MWD
 
5-day plot - Atmospheric Pressure
PRES
in
5-day plot - Pressure Tendency
PTDY
in
5-day plot - Air Temperature
ATMP
°F
5-day plot - Water Temperature
WTMP
°F
5-day plot - Dew Point
DEWP
°F
5-day plot - Salinity
SAL
psu
5-day plot - Visibility
VIS
nmi
5-day plot - Tide (above MLLW)
TIDE
ft
2026-09-01 10:24 amESE 1.9 2.9----29.93-- 66.6----
2026-09-01 10:18 amESE 1.0 4.1----29.93-- 66.6----
2026-09-01 10:12 am SE 2.9 4.1----29.92-- 66.6----
2026-09-01 10:06 am SE 2.9 2.9----29.92-- 66.6----
2026-09-01 10:00 am SE 1.9 1.9----29.92+0.02- 66.6----
2026-09-01 09:54 am SE 1.9 1.9----29.92-- 66.6----
2026-09-01 09:48 am- 0.0 1.0----29.93-- 66.6----
2026-09-01 09:42 am- 0.0 1.0----29.93-- 66.6----
2026-09-01 09:36 amSSE 1.0 1.0----29.93-- 66.6----
2026-09-01 09:30 am- 0.0 1.0----29.93-- 66.6----
2026-09-01 09:24 am- 0.0 1.0----29.93-- 66.6----
2026-09-01 09:18 am- 0.0 1.0----29.93-- 66.6----
2026-09-01 09:12 am- 0.0 0.0----29.93-- 66.6----
2026-09-01 09:06 am- 0.0 1.0----29.93-- 66.6----
2026-09-01 09:00 am- 0.0 1.9----29.92+0.02- 66.6----
2026-09-01 08:54 am- 0.0 1.0----29.92-- 66.6----
2026-09-01 08:48 am- 0.0 1.9----29.92-- 66.6----
2026-09-01 08:42 am SE 1.9 1.9----29.92-- 66.6----
2026-09-01 08:36 am SE 1.9 1.9----29.92-- 66.6----
2026-09-01 08:30 amESE 1.0 1.9----29.92-- 66.6----
2026-09-01 08:24 am SE 1.0 1.9----29.92-- 66.6----
2026-09-01 08:18 am- 0.0 1.9----29.91-- 66.6----
2026-09-01 08:12 amSSE 1.0 1.9----29.91-- 66.6----
2026-09-01 08:06 am S 1.0 2.9----29.91-- 66.6----
2026-09-01 08:00 am SE 1.9 2.9----29.91+0.01- 66.6----
2026-09-01 07:54 am- 0.0 1.9----29.91-- 66.6----
2026-09-01 07:48 am S 1.9 2.9----29.91-- 66.6----
2026-09-01 07:42 am- 0.0 2.9----29.91-- 66.6----
2026-09-01 07:36 am S 1.0 1.9----29.91-- 66.6----
2026-09-01 07:30 am SW 1.9 1.9----29.91-- 66.6----
2026-09-01 07:24 am S 1.9 1.9----29.90-- 66.6----
2026-09-01 07:18 am- 0.0 1.0----29.90-- 66.6----
2026-09-01 07:12 am- 0.0 1.0----29.90-- 66.6----
2026-09-01 07:06 am- 0.0 0.0----29.90-- 66.6----
2026-09-01 07:00 am- 0.0 1.0----29.90+0.01- 66.6----
2026-09-01 06:54 am- 0.0 1.0----29.90-- 66.6----
2026-09-01 06:48 amWNW 1.0 1.0----29.90-- 66.6----
2026-09-01 06:42 am- 0.0 1.0----29.90-- 66.6----
2026-09-01 06:36 am- 0.0 1.9----29.91-- 66.6----
2026-09-01 06:30 amWNW 1.9 1.9----29.91-- 66.6----
2026-09-01 06:24 am NW 1.0 1.0----29.90-- 66.6----
2026-09-01 06:18 am NE 1.0 1.0----29.90-- 66.6----
2026-09-01 06:12 am- 0.0 1.9----29.90-- 66.6----
2026-09-01 06:06 amWNW 1.9 1.9----29.91-- 66.7----
2026-09-01 06:00 amWNW 1.0 1.9----29.90-- 66.7----
2026-09-01 05:54 am- 0.0 1.0----29.90-- 66.7----
2026-09-01 05:48 am- 0.0 1.0----29.90-- 66.7----
2026-09-01 05:42 am- 0.0 0.0----29.90-- 66.7----
2026-09-01 05:36 am- 0.0 0.0----29.90-- 66.7----
2026-09-01 05:30 am- 0.0 0.0----29.90-- 66.7----
2026-09-01 05:24 am- 0.0 0.0----29.90-- 66.7----
2026-09-01 05:18 am- 0.0 1.9----29.90-- 66.7----
2026-09-01 05:12 am NW 1.0 1.9----29.90-- 66.7----
2026-09-01 05:06 am W 1.0 1.0----29.89-- 66.7----
2026-09-01 05:00 am- 0.0 1.0----29.90+0.03- 66.7----
2026-09-01 04:54 am- 0.0 1.9----29.89-- 66.7----
2026-09-01 04:48 am- 0.0 1.0----29.89-- 66.7----
2026-09-01 04:42 am- 0.0 0.0----29.88-- 66.7----
2026-09-01 04:36 am- 0.0 0.0----29.88-- 66.7----
2026-09-01 04:30 am E 1.0 1.0----29.88-- 66.7----
2026-09-01 04:24 am- 0.0 1.9----29.88-- 66.7----
2026-09-01 04:18 amWNW 1.9 1.9----29.89-- 66.9----
2026-09-01 04:12 am- 0.0 1.0----29.88-- 66.9----
2026-09-01 04:06 am- 0.0 1.9----29.88-- 66.9----
2026-09-01 04:00 amWNW 1.0 1.9----29.89+0.01- 66.9----
2026-09-01 03:54 amWNW 1.9 2.9----29.89-- 66.9----
2026-09-01 03:48 am NW 1.9 2.9----29.89-- 66.9----
2026-09-01 03:42 am NW 1.9 2.9----29.89-- 66.9----
2026-09-01 03:36 amWNW 2.9 2.9----29.89-- 66.9----
2026-09-01 03:30 amWNW 1.9 2.9----29.89-- 66.9----
2026-09-01 03:24 amWNW 1.9 2.9----29.89-- 66.9----
2026-09-01 03:18 amWNW 2.9 2.9----29.88-- 66.9----
2026-09-01 03:12 amNNW 1.9 2.9----29.88-- 66.9----
2026-09-01 03:06 am N 2.9 2.9----29.88-- 66.9----
2026-09-01 03:00 am N 2.9 2.9------- 66.9----
2026-09-01 02:54 amNNW 1.9 1.9------- 66.9----
2026-09-01 02:48 amNNW 1.9 1.9----29.88-- 66.9----
2026-09-01 02:42 am NW 1.9 1.9----29.88-- 66.9----
2026-09-01 02:36 amWNW 1.9 1.9----29.87-- 66.9----
2026-09-01 02:30 amWNW 1.9 2.9----29.87-- 66.9----
2026-09-01 02:24 am W 1.9 2.9----29.87-- 66.9----
2026-09-01 02:18 amWSW 1.9 4.1----29.87-- 66.9----
2026-09-01 02:12 am SW 2.9 4.1----29.87-- 66.9----
2026-09-01 02:06 amWSW 1.9 2.9----29.87-- 66.9----
2026-09-01 02:00 amWNW 1.9 1.9----29.87-0.02- 66.9----
2026-09-01 01:54 am- 0.0 1.0----29.86-- 66.9----
2026-09-01 01:48 am- 0.0 2.9----29.87-- 66.9----
2026-09-01 01:42 amESE 2.9 5.1----29.86-- 66.9----
2026-09-01 01:36 am SE 5.1 5.1----29.86-- 66.9----
2026-09-01 01:30 amESE 4.1 5.1----29.87-- 66.9----
2026-09-01 01:24 amESE 4.1 5.1----29.87-- 66.9----
2026-09-01 01:18 am E 1.9 2.9----29.87-- 66.9----
2026-09-01 01:12 am E 1.9 5.1----29.87-- 66.9----
2026-09-01 01:06 am E 1.9 4.1----29.87-- 66.9----
2026-09-01 01:00 am- 0.0 1.9----29.88+0.00- 66.9----
2026-09-01 12:54 am E 1.0 2.9----29.88-- 66.9----
2026-09-01 12:48 am E 1.9 4.1----29.88-- 66.9----
2026-09-01 12:42 am E 1.9 4.1----29.88-- 66.9----
2026-09-01 12:36 amESE 2.9 4.1----29.87-- 66.9----
2026-09-01 12:30 amESE 1.9 4.1----29.87-- 66.9----
2026-09-01 12:24 am E 2.9 5.1----29.87-- 66.9----
2026-09-01 12:18 am E 1.9 2.9----29.87-- 66.9----
2026-09-01 12:12 am E 2.9 5.1----29.87-- 66.9----
2026-09-01 12:06 am E 1.9 5.1----29.88-- 66.9----
2026-09-01 12:00 am E 1.9 5.1----29.88-0.01- 66.9----
2026-08-31 11:54 pmENE 2.9 5.1----29.88-- 66.9----
2026-08-31 11:48 pmENE 2.9 5.1----29.88-- 66.9----
2026-08-31 11:42 pmENE 2.9 5.1----29.88-- 66.9----
2026-08-31 11:36 pmENE 4.1 6.0----29.88-- 66.9----
2026-08-31 11:30 pm N 1.9 2.9----29.89-- 66.9----
2026-08-31 11:24 pm N 1.9 1.9----29.89-- 66.9----
2026-08-31 11:18 pm N 1.9 2.9------- 66.9----
2026-08-31 11:12 pmNNE 2.9 4.1------- 66.9----
2026-08-31 11:06 pmNNE 1.9 2.9------- 66.9----
2026-08-31 11:00 pm NE 1.9 2.9----29.88+0.00- 66.9----
2026-08-31 10:54 pm NE 1.9 2.9----29.88-- 66.9----
2026-08-31 10:48 pmENE 1.9 2.9----29.88-- 66.9----
2026-08-31 10:42 pmENE 1.9 4.1----29.88-- 66.9----
2026-08-31 10:36 pm E 1.0 1.9----29.88-- 66.9----
2026-08-31 10:30 pm E 1.0 7.0----29.87-- 66.9----
2026-08-31 10:24 pm E 2.9 5.1----29.87-- 66.9----
2026-08-31 10:18 pm E 4.1 7.0----29.88-- 66.9----
2026-08-31 10:12 pm E 1.9 4.1----29.88-- 66.9----
2026-08-31 10:06 pmENE 1.9 6.0----29.88-- 66.9----
2026-08-31 10:00 pm E 1.9 5.1----29.88+0.00- 66.9----
2026-08-31 09:54 pmENE 1.9 5.1----29.89-- 66.9----
2026-08-31 09:48 pm NE 4.1 7.0----29.89-- 66.9----
2026-08-31 09:42 pmENE 2.9 6.0----29.89-- 66.9----
2026-08-31 09:36 pm E 2.9 6.0----29.89-- 66.9----
2026-08-31 09:30 pm E 5.1 7.0----29.89-- 66.9----
2026-08-31 09:24 pm E 5.1 9.9----29.89-- 66.9----
2026-08-31 09:18 pm E 2.9 5.1----29.89-- 66.9----
2026-08-31 09:12 pm E 4.1 6.0----29.89-- 66.9----
2026-08-31 09:06 pm E 2.9 5.1----29.89-- 66.9----
2026-08-31 09:00 pm E 2.9 6.0----29.89+0.00- 66.9----
2026-08-31 08:54 pm E 2.9 7.0----29.89-- 66.9----
2026-08-31 08:48 pm E 4.1 8.9----29.88-- 66.9----
2026-08-31 08:42 pm E 5.1 8.9----29.88-- 66.9----
2026-08-31 08:36 pm E 5.1 8.9----29.88-- 66.9----
2026-08-31 08:30 pm E 7.0 11.1----29.88-- 66.9----
2026-08-31 08:24 pm E 5.1 11.1----29.88-- 66.9----
2026-08-31 08:18 pm E 5.1 8.0----29.88-- 66.9----
2026-08-31 08:12 pm E 5.1 8.0----29.88-- 66.9----
2026-08-31 08:06 pm E 5.1 8.0----29.88-- 66.9----
2026-08-31 08:00 pm E 5.1 8.0----29.88+0.00- 66.9----
2026-08-31 07:54 pm E 4.1 7.0----29.88-- 66.9----
2026-08-31 07:48 pm E 5.1 8.0----29.88-- 66.9----
2026-08-31 07:42 pm E 2.9 8.9----29.87-- 66.9----
2026-08-31 07:36 pm E 5.1 7.0----29.87-- 66.9----
2026-08-31 06:48 pm E 6.0 9.9----29.88-- 66.9----
2026-08-31 06:42 pm E 2.9 6.0----29.88-- 66.9----
2026-08-31 06:36 pm E 4.1 8.0----29.89-- 66.9----
2026-08-31 06:30 pm E 5.1 9.9----29.89-- 66.9----
2026-08-31 06:24 pm E 4.1 8.0----29.89-- 66.9----
2026-08-31 06:18 pm E 5.1 8.9----29.89-- 66.9----
2026-08-31 06:12 pm E 4.1 9.9----29.89-- 66.9----
2026-08-31 06:06 pm E 4.1 8.0----29.89-- 66.9----
2026-08-31 06:00 pm E 4.1 8.0----29.89-0.02- 66.7----
2026-08-31 05:54 pm E 5.1 8.9----29.89-- 66.7----
2026-08-31 05:48 pm E 6.0 11.1----29.89-- 66.7----
2026-08-31 05:42 pm E 6.0 11.1----29.89-- 66.7----
2026-08-31 05:36 pm E 4.1 9.9----29.89-- 66.7----
2026-08-31 05:30 pm E 6.0 9.9----29.89-- 66.7----
2026-08-31 05:24 pm E 2.9 7.0----29.89-- 66.7----
2026-08-31 05:18 pmESE 7.0 8.9----29.89-- 66.7----
2026-08-31 05:12 pm E 4.1 9.9----29.89-- 66.7----
2026-08-31 05:06 pm E 5.1 11.1----29.88-- 66.7----
2026-08-31 05:00 pm E 6.0 12.0----29.88-0.04- 66.7----
2026-08-31 04:54 pm E 5.1 8.9----29.88-- 66.7----
2026-08-31 04:48 pm E 2.9 8.0----29.89-- 66.7----
2026-08-31 04:42 pm E 4.1 8.9----29.89-- 66.7----
2026-08-31 04:36 pm E 6.0 8.0----29.89-- 66.7----
2026-08-31 04:30 pm E 4.1 8.9----29.89-- 66.7----
2026-08-31 04:24 pmENE 5.1 8.9----29.89-- 66.7----
2026-08-31 04:18 pmENE 5.1 7.0----29.89-- 66.7----
2026-08-31 04:12 pm E 4.1 6.0----29.89-- 66.7----
2026-08-31 04:06 pm E 4.1 7.0----29.90-- 66.7----
2026-08-31 04:00 pm E 4.1 6.0----29.90-0.04- 66.7----
2026-08-31 03:54 pmENE 4.1 7.0----29.90-- 66.7----
2026-08-31 03:48 pm E 5.1 8.9----29.89-- 66.7----
2026-08-31 03:42 pm E 6.0 8.9----29.90-- 66.7----
2026-08-31 03:36 pmESE 7.0 11.1----29.90-- 66.7----
2026-08-31 03:30 pmESE 7.0 12.0----29.90-- 66.7----
2026-08-31 03:24 pm E 4.1 9.9----29.91-- 66.7----
2026-08-31 03:18 pm E 7.0 9.9----29.91-- 66.7----
2026-08-31 03:12 pm E 4.1 8.0----29.91-- 66.7----
2026-08-31 03:06 pm E 5.1 9.9----29.91-- 66.7----
2026-08-31 03:00 pm E 4.1 8.0----29.91-0.04- 66.7----
2026-08-31 02:54 pm E 4.1 8.0----29.91-- 66.7----
2026-08-31 02:48 pm E 5.1 8.0----29.91-- 66.7----
2026-08-31 02:42 pm E 5.1 8.0----29.92-- 66.7----
2026-08-31 02:36 pm E 2.9 7.0----29.93-- 66.7----
2026-08-31 02:30 pm E 2.9 7.0----29.93-- 66.7----
2026-08-31 02:24 pmENE 4.1 5.1----29.93-- 66.7----
2026-08-31 02:18 pmENE 4.1 5.1----29.92-- 66.7----
2026-08-31 02:12 pm E 2.9 6.0----29.93-- 66.7----
2026-08-31 02:06 pm E 5.1 8.9----29.92-- 66.7----
2026-08-31 02:00 pm E 6.0 8.0----29.93-0.04- 66.7----
2026-08-31 01:54 pmESE 6.0 8.0----29.93-- 66.7----
2026-08-31 01:48 pm E 4.1 8.9----29.93-- 66.7----
2026-08-31 01:42 pm E 5.1 8.9----29.93-- 66.7----
2026-08-31 01:36 pm E 5.1 8.0----29.93-- 66.7----
2026-08-31 01:30 pm E 4.1 5.1----29.93-- 66.7----
2026-08-31 01:24 pm E 4.1 7.0----29.93-- 66.7----
2026-08-31 01:18 pm E 4.1 7.0----29.93-- 66.7----
2026-08-31 01:12 pmESE 7.0 8.9----29.93-- 66.7----
2026-08-31 01:06 pmESE 7.0 8.0----29.94-- 66.6----
2026-08-31 01:00 pmESE 6.0 8.9----29.94-0.02- 66.6----
2026-08-31 12:54 pmESE 7.0 8.9----29.94-- 66.6----
2026-08-31 12:48 pmESE 7.0 8.0----29.94-- 66.6----
2026-08-31 12:42 pmESE 6.0 7.0----29.94-- 66.7----
2026-08-31 12:36 pmESE 5.1 7.0----29.94-- 66.7----
2026-08-31 12:30 pm E 7.0 8.0----29.94-- 66.6----
2026-08-31 12:24 pm E 7.0 8.9----29.94-- 66.6----
2026-08-31 12:18 pmESE 6.0 8.0----29.94-- 66.6----
2026-08-31 12:12 pm E 7.0 9.9----29.94-- 66.6----
2026-08-31 12:06 pmESE 2.9 7.0----29.95-- 66.6----
2026-08-31 12:00 pmESE 4.1 6.0----29.95+0.00- 66.6----
2026-08-31 11:54 amESE 6.0 7.0----29.95-- 66.6----
2026-08-31 11:48 amESE 4.1 8.9----29.95-- 66.6----
2026-08-31 11:42 amESE 4.1 6.0----29.95-- 66.6----
2026-08-31 11:36 amESE 5.1 8.0----29.96-- 66.6----
2026-08-31 11:30 am SE 7.0 8.9----29.96-- 66.6----
2026-08-31 11:24 amESE 7.0 8.9----29.96-- 66.6----
2026-08-31 11:18 amESE 6.0 8.0----29.96-- 66.6----
2026-08-31 11:12 amESE 6.0 8.0----29.96-- 66.6----
2026-08-31 11:06 am SE 6.0 8.0----29.96-- 66.6----
2026-08-31 11:00 am SE 6.0 9.9----29.96+0.03- 66.6----
2026-08-31 10:54 am SE 8.0 11.1----29.96-- 66.6----